AP679 Weather Reports


Display with metric or nautical units.
time (UTC)temp
F
wind
direction
speed
MPH
gust
MPH
rain 1hr
in
rain 24hr
in
rain mn
in
humidity
%
barometer
mb
20260505210504 54 36 3.0 12.0 0.00 0.00 0.00 83 1010.0
20260505210004 54 28 7.0 12.0 0.00 0.00 0.00 83 1010.1
20260505205504 54 19 5.0 10.0 0.00 0.00 0.00 83 1010.1
20260505205005 54 27 4.0 12.0 0.00 0.00 0.00 83 1010.1
20260505204505 54 25 5.0 12.0 0.00 0.00 0.00 83 1010.0
20260505204003 54 28 5.0 10.0 0.00 0.00 0.00 83 1010.0
20260505203005 54 32 6.0 13.0 0.00 0.00 0.00 83 1010.0
20260505202504 54 17 5.0 12.0 0.00 0.00 0.00 83 1009.9
20260505202005 55 22 5.0 12.0 0.00 0.00 0.00 83 1010.0
20260505201504 55 30 6.0 12.0 0.00 0.00 0.00 83 1009.8
20260505201003 55 30 5.0 9.0 0.00 0.00 0.00 83 1009.7
20260505200504 55 29 6.0 10.0 0.00 0.00 0.00 83 1009.7
20260505195504 55 25 4.0 10.0 0.00 0.00 0.00 83 1009.7
20260505195004 55 27 6.0 9.0 0.00 0.00 0.00 83 1009.7
20260505194504 55 23 5.0 13.0 0.00 0.00 0.00 83 1009.6
20260505194004 55 21 5.0 9.0 0.00 0.00 0.00 83 1009.6
20260505193504 55 25 3.0 8.0 0.00 0.00 0.00 83 1009.6
20260505192504 56 13 3.0 9.0 0.00 0.00 0.00 83 1009.5
20260505192004 56 28 3.0 10.0 0.00 0.00 0.00 84 1009.4
20260505191504 56 24 4.0 12.0 0.00 0.00 0.00 83 1009.4
20260505191004 56 24 3.0 8.0 0.00 0.00 0.00 83 1009.4
20260505190504 56 358 4.0 10.0 0.00 0.00 0.00 83 1009.3
20260505190004 56 20 5.0 9.0 0.00 0.00 0.00 83 1009.2
20260505185504 57 14 3.0 8.0 0.00 0.00 0.00 83 1009.2
20260505185004 57 24 6.0 9.0 0.00 0.00 0.00 83 1009.2
20260505184504 57 17 3.0 12.0 0.00 0.00 0.00 83 1009.2
20260505184004 57 25 5.0 10.0 0.00 0.00 0.00 82 1009.2
20260505183504 57 40 5.0 9.0 0.00 0.00 0.00 82 1009.1
20260505183004 57 352 4.0 9.0 0.00 0.00 0.00 81 1009.2
20260505182004 58 21 5.0 8.0 0.00 0.00 0.00 81 1009.1
20260505181504 58 23 5.0 10.0 0.00 0.00 0.00 80 1009.1
20260505181003 58 18 5.0 10.0 0.00 0.00 0.00 80 1009.2
20260505180504 58 14 6.0 12.0 0.00 0.00 0.00 81 1009.2
20260505180004 59 20 3.0 8.0 0.00 0.00 0.00 81 1009.2
20260505175504 58 32 2.0 5.0 0.00 0.00 0.00 84 1009.2
20260505174504 58 67 1.0 3.0 0.00 0.00 0.00 84 1009.2
20260505174004 59 68 3.0 5.0 0.00 0.00 0.00 83 1009.2
20260505173004 59 71 2.0 9.0 0.00 0.00 0.00 82 1009.1
20260505172504 60 52 3.0 7.0 0.00 0.00 0.00 80 1009.1
20260505172004 59 31 3.0 10.0 0.00 0.00 0.00 80 1009.2
20260505171504 59 28 4.0 7.0 0.00 0.00 0.00 81 1009.2
20260505171004 59 35 4.0 8.0 0.00 0.00 0.00 82 1009.2
20260505170504 59 47 2.0 7.0 0.00 0.00 0.00 83 1009.2
20260505170004 59 61 1.0 8.0 0.00 0.00 0.00 83 1009.2
20260505165504 59 62 3.0 8.0 0.00 0.00 0.00 84 1009.2
20260505165003 59 38 3.0 7.0 0.00 0.00 0.00 83 1009.3
20260505164504 58 59 4.0 10.0 0.00 0.00 0.00 84 1009.3
20260505164003 58 41 4.0 9.0 0.00 0.00 0.00 84 1009.4
20260505163504 58 63 4.0 10.0 0.00 0.00 0.00 84 1009.3
20260505163004 58 36 4.0 7.0 0.00 0.00 0.00 85 1009.3
20260505162504 58 45 5.0 8.0 0.00 0.00 0.00 84 1009.4
20260505162004 58 63 3.0 8.0 0.00 0.00 0.00 84 1009.4
20260505161504 59 22 6.0 10.0 0.00 0.00 0.00 83 1009.4
20260505161003 59 44 3.0 9.0 0.00 0.00 0.00 84 1009.5
20260505160504 59 67 4.0 7.0 0.00 0.00 0.00 84 1009.5
20260505115004 55 22 3.0 8.0 0.00 0.00 0.00 91 1010.8
20260505113504 55 55 3.0 9.0 0.00 0.00 0.00 92 1010.9
20260505113004 55 25 5.0 7.0 0.00 0.01 0.00 92 1010.8
20260505112504 55 59 3.0 8.0 0.00 0.01 0.00 92 1010.9
20260505112005 55 32 5.0 9.0 0.00 0.01 0.00 92 1010.9
20260505111503 55 30 5.0 9.0 0.00 0.01 0.00 92 1011.0
20260505110505 55 31 3.0 8.0 0.00 0.01 0.00 92 1011.0
20260505102005 54 31 7.0 10.0 0.00 0.01 0.00 93 1011.0
20260505101505 54 16 6.0 12.0 0.00 0.01 0.00 93 1011.1
20260505101004 54 14 5.0 9.0 0.00 0.01 0.00 93 1011.1
20260505100504 54 23 5.0 9.0 0.00 0.01 0.00 94 1011.1
20260505100003 53 30 5.0 10.0 0.00 0.01 0.00 94 1011.0
20260505095504 53 33 6.0 13.0 0.00 0.01 0.00 94 1011.0
20260505095003 53 24 5.0 12.0 0.00 0.01 0.00 94 1011.0
20260505094504 53 29 6.0 12.0 0.00 0.01 0.00 94 1011.0
20260505094004 53 16 3.0 10.0 0.00 0.01 0.00 94 1011.0
20260505093004 53 31 5.0 10.0 0.00 0.01 0.00 94 1011.0
20260505092504 53 23 6.0 9.0 0.00 0.01 0.00 94 1011.0
20260505092004 53 353 5.0 9.0 0.00 0.01 0.00 94 1011.1
20260505091505 53 26 3.0 7.0 0.00 0.01 0.00 94 1011.1
20260505091004 53 28 3.0 12.0 0.00 0.01 0.00 94 1011.2
20260505090503 53 13 5.0 12.0 0.00 0.01 0.00 94 1011.2
20260505090004 53 30 6.0 10.0 0.00 0.01 0.00 94 1011.2
20260505085504 53 26 6.0 12.0 0.00 0.01 0.00 94 1011.3
20260505085005 53 30 6.0 12.0 0.00 0.01 0.00 94 1011.2
20260505083507 53 27 5.0 8.0 0.00 0.01 0.00 93 1011.2
20260505083005 53 20 4.0 10.0 0.00 0.01 0.00 94 1011.2
20260505082505 53 18 3.0 8.0 0.00 0.01 0.00 94 1011.2
20260505082004 53 10 4.0 7.0 0.00 0.01 0.00 94 1011.2
20260505081505 53 28 5.0 7.0 0.00 0.01 0.00 94 1011.3
20260505081003 53 24 5.0 9.0 0.00 0.01 0.00 94 1011.3
20260505080506 52 30 3.0 7.0 0.00 0.01 0.00 93 1011.3
20260505074506 52 2 4.0 8.0 0.00 0.01 0.00 93 1011.4
20260505074004 52 6 3.0 6.0 0.00 0.01 0.00 93 1011.3
20260505073506 52 354 3.0 8.0 0.00 0.01 0.00 93 1011.3
20260505073004 52 25 5.0 8.0 0.00 0.01 0.00 93 1011.4
20260505072504 52 26 3.0 8.0 0.00 0.01 0.00 94 1011.2
20260505072004 52 22 5.0 10.0 0.00 0.01 0.00 94 1011.3
20260505071504 52 26 5.0 10.0 0.00 0.01 0.00 94 1011.3
20260505071004 52 19 5.0 9.0 0.00 0.01 0.00 94 1011.3
20260505070506 52 26 6.0 12.0 0.00 0.01 0.00 94 1011.4
20260505070004 52 27 7.0 12.0 0.00 0.01 0.00 94 1011.3
20260505065503 52 24 4.0 8.0 0.00 0.01 0.00 94 1011.3
20260505064506 52 349 5.0 9.0 0.00 0.01 0.00 94 1011.3
20260505064005 52 0 5.0 10.0 0.00 0.01 0.00 94 1011.3
20260505063504 52 10 3.0 7.0 0.00 0.01 0.00 94 1011.3
20260505063005 52 45 4.0 10.0 0.00 0.01 0.00 94 1011.5
20260505062504 52 31 5.0 10.0 0.00 0.01 0.00 94 1011.5
20260505062003 52 29 4.0 8.0 0.00 0.01 0.00 94 1011.5
20260505060504 53 331 3.0 7.0 0.00 0.01 0.00 94 1011.4
20260505055504 53 0 5.0 9.0 0.00 0.01 0.00 94 1011.4
20260505055004 53 355 3.0 6.0 0.00 0.01 0.00 94 1011.5
20260505054005 53 19 4.0 7.0 0.00 0.01 0.00 94 1011.5
20260505053503 53 28 3.0 10.0 0.00 0.01 0.00 94 1011.5
20260505053004 53 27 4.0 9.0 0.00 0.01 0.00 94 1011.4
20260505052003 53 340 5.0 8.0 0.00 0.01 0.00 94 1011.3
20260505051504 53 2 3.0 8.0 0.00 0.01 0.00 94 1011.4
20260505051005 53 354 4.0 7.0 0.00 0.01 0.00 94 1011.3
20260505050504 53 24 3.0 8.0 0.00 0.01 0.00 94 1011.4
20260505041504 54 25 2.0 7.0 0.00 0.01 0.00 94 1011.3
20260505041005 54 328 3.0 6.0 0.00 0.01 0.00 94 1011.2
20260505040506 54 28 2.0 7.0 0.00 0.01 0.00 94 1011.3
20260505040005 54 4 6.0 9.0 0.00 0.01 0.00 93 1011.4
20260505035504 54 5 4.0 9.0 0.00 0.01 0.00 93 1011.4
20260505035004 54 345 5.0 9.0 0.00 0.01 0.00 94 1011.4
20260505034503 54 35 4.0 9.0 0.00 0.01 0.00 94 1011.4
20260505034003 54 29 4.0 9.0 0.00 0.01 0.00 94 1011.5
20260505033504 54 24 4.0 8.0 0.00 0.01 0.00 93 1011.5
20260505033003 54 5 5.0 8.0 0.00 0.01 0.00 93 1011.5
20260505032505 54 0 4.0 8.0 0.00 0.01 0.00 93 1011.6
20260505032005 54 356 4.0 7.0 0.00 0.01 0.00 93 1011.5
20260505031503 54 35 3.0 7.0 0.00 0.01 0.00 93 1011.6
20260505031004 54 336 4.0 8.0 0.00 0.01 0.00 93 1011.6
20260505030504 54 28 3.0 9.0 0.00 0.01 0.00 93 1011.5
20260505030004 54 33 5.0 8.0 0.00 0.01 0.00 93 1011.5
20260505025505 55 32 4.0 8.0 0.00 0.01 0.00 93 1011.6
20260505025005 55 15 4.0 8.0 0.00 0.01 0.00 93 1011.5
20260505024505 55 25 6.0 10.0 0.00 0.01 0.00 93 1011.6
20260505024004 55 28 6.0 12.0 0.00 0.01 0.00 93 1011.5
20260505023505 55 22 5.0 9.0 0.00 0.01 0.00 93 1011.5
20260505023004 55 40 5.0 9.0 0.00 0.01 0.00 93 1011.6
20260505022505 55 41 5.0 9.0 0.00 0.01 0.00 93 1011.6
20260505021504 55 24 3.0 7.0 0.00 0.01 0.00 93 1011.6
20260505021003 55 17 5.0 8.0 0.00 0.01 0.00 93 1011.6
20260505020505 55 11 4.0 12.0 0.00 0.01 0.00 93 1011.6
20260505020004 55 26 5.0 12.0 0.00 0.01 0.00 93 1011.5
20260505015505 55 354 3.0 10.0 0.00 0.01 0.00 93 1011.5
20260505015004 56 25 5.0 9.0 0.00 0.01 0.00 93 1011.5
20260505014504 56 28 3.0 6.0 0.00 0.01 0.00 93 1011.6
20260505014004 56 29 3.0 6.0 0.00 0.01 0.00 93 1011.6
20260505013504 56 31 1.0 5.0 0.00 0.01 0.00 93 1011.6
20260505013004 56 34 2.0 7.0 0.00 0.01 0.00 93 1011.6
20260505012503 56 34 4.0 12.0 0.00 0.01 0.00 93 1011.6
20260505012005 56 33 5.0 10.0 0.00 0.01 0.00 93 1011.6
20260505011506 56 27 3.0 7.0 0.00 0.01 0.00 93 1011.6
20260505011004 56 14 5.0 8.0 0.00 0.01 0.00 93 1011.7
20260505010505 56 53 5.0 10.0 0.00 0.01 0.00 93 1011.7
20260505010004 56 13 5.0 8.0 0.00 0.01 0.00 94 1011.7
20260505005005 56 7 3.0 7.0 0.00 0.01 0.00 93 1011.8
20260505004006 56 14 3.0 6.0 0.00 0.01 0.00 93 1011.9
20260505003504 56 351 3.0 6.0 0.00 0.01 0.00 93 1011.9
20260505002004 56 29 5.0 8.0 0.00 0.01 0.00 94 1012.0
20260505001505 56 38 5.0 10.0 0.00 0.01 0.00 94 1012.0
20260505001003 56 352 3.0 7.0 0.00 0.01 0.00 93 1012.0
20260505000504 57 17 5.0 8.0 0.00 0.01 0.00 93 1012.0
20260505000004 57 20 2.0 5.0 0.00 0.01 0.00 93 1011.9
20260504235503 57 21 3.0 6.0 0.00 0.01 0.00 93 1012.0
20260504235004 57 25 1.0 3.0 0.00 0.01 0.00 93 1012.1
20260504234004 57 30 3.0 7.0 0.00 0.01 0.00 93 1012.1
20260504233504 57 11 3.0 6.0 0.00 0.01 0.00 93 1012.1
20260504233003 57 36 4.0 7.0 0.00 0.01 0.00 93 1012.2
20260504232503 57 22 3.0 7.0 0.00 0.01 0.00 93 1012.2
20260504232004 57 22 4.0 7.0 0.00 0.01 0.00 93 1012.3
20260504231006 57 41 3.0 8.0 0.00 0.01 0.00 93 1012.3
20260504230504 57 353 3.0 8.0 0.00 0.01 0.00 93 1012.3
20260504225506 57 9 3.0 6.0 0.00 0.01 0.00 93 1012.3
20260504225004 57 15 2.0 6.0 0.00 0.01 0.00 93 1012.4
20260504224004 57 329 3.0 7.0 0.00 0.01 0.00 93 1012.4
20260504223505 57 327 3.0 8.0 0.00 0.01 0.00 93 1012.5
20260504223004 57 327 5.0 9.0 0.00 0.01 0.00 93 1012.5
20260504222504 57 353 3.0 6.0 0.00 0.01 0.00 93 1012.6
20260504222003 57 329 5.0 7.0 0.00 0.01 0.00 93 1012.6
20260504221504 57 330 4.0 12.0 0.00 0.01 0.00 93 1012.7
20260504220504 57 0 4.0 6.0 0.00 0.01 0.00 93 1012.7
20260504220004 57 12 4.0 7.0 0.00 0.01 0.00 93 1012.7
20260504215505 57 327 3.0 8.0 0.00 0.01 0.01 93 1012.8
20260504215003 57 322 5.0 10.0 0.00 0.01 0.01 93 1012.8
20260504214503 57 327 3.0 7.0 0.00 0.01 0.01 93 1012.8
20260504214003 57 327 3.0 6.0 0.00 0.01 0.01 93 1012.8
20260504213504 57 326 4.0 7.0 0.00 0.01 0.01 93 1012.9
20260504213004 57 328 3.0 6.0 0.00 0.01 0.01 93 1012.9
20260504212504 57 327 5.0 8.0 0.00 0.01 0.01 93 1012.8